Weather History for Wheeling, WV

Change the Weather History Date:

Friday, January 4, 2013

  Actual Average Record
Temperature  
Mean Temperature 30 °F 29 °F  
Max Temperature 32 °F 36 °F 66 °F (1997)
Min Temperature 27 °F 22 °F 8 °F (2014)
Degree Days  
Heating Degree Days 35 36  
Month to date heating degree days 158 144  
Since 1 July heating degree days 2184 2269  
Cooling Degree Days 0    
Month to date cooling degree days 0  
Year to date cooling degree days 0  
Moisture  
Dew Point 18 °F    
Average Humidity 65    
Maximum Humidity 75    
Minimum Humidity 54    
Precipitation  
Precipitation 0.00 in 0.10 in 1.68 in (2004)
Month to date precipitation 0.03 0.42  
Sea Level Pressure  
Sea Level Pressure 30.24 in    
Wind  
Wind Speed 15 mph (WSW)    
Max Wind Speed 26 mph    
Max Gust Speed 39 mph    
Visibility 10 miles    
Events      
T = Trace of Precipitation, MM = Missing Value Source: NWS Daily Summary

Daily Weather History Graph

Daily Weather History Graph

Search for Another Location

Airport:

Trip Planner

Search our weather history database for the weather conditions in past years. The results will help you decide how hot, cold, wet, or windy it might be!

Date:

Astronomy

Jan. 04, 2013 Rise Set
Actual Time 7:45 AM EST 5:10 PM EST
Civil Twilight 7:14 AM EST 5:40 PM EST
Nautical Twilight 6:40 AM EST 6:14 PM EST
Astronomical Twilight 6:07 AM EST 6:47 PM EST
Moon No Moon Rise 11:26 AM EST (1/4)
Length of Visible Light 10h 26m
Length of Day
9h 25m
Waning Gibbous, 55% of the Moon is Illuminated
Jan 4
Waning Gibbous
Jan 4
Last Quarter
Jan 11
New
Jan 18
First Quarter
Jan 26
Full

Hourly Weather History & Observations

Time (EST) Temp. Windchill Dew Point Humidity Pressure Visibility Wind Dir Wind Speed Gust Speed Precip Events Conditions
12:29 AM 28.4 °F 16.6 °F 17.6 °F 64% 30.19 in 10.0 mi West 16.1 mph 29.9 mph N/A   Overcast
12:45 AM 26.6 °F 16.2 °F 17.6 °F 69% 30.19 in 10.0 mi West 11.5 mph 18.4 mph N/A   Overcast
12:53 AM 27.0 °F 15.6 °F 18.0 °F 69% 30.25 in 10.0 mi West 13.8 mph 21.9 mph N/A   Overcast
1:53 AM 27.0 °F 16.7 °F 19.0 °F 72% 30.24 in 10.0 mi West 11.5 mph 25.3 mph N/A   Overcast
2:53 AM 27.0 °F 15.2 °F 19.9 °F 75% 30.25 in 10.0 mi WSW 15.0 mph 20.7 mph N/A   Overcast
3:53 AM 27.0 °F 16.7 °F 19.0 °F 72% 30.25 in 10.0 mi WSW 11.5 mph - N/A   Overcast
4:53 AM 27.0 °F 16.7 °F 19.0 °F 72% 30.25 in 10.0 mi WSW 11.5 mph 18.4 mph N/A   Overcast
5:53 AM 27.0 °F 14.3 °F 19.0 °F 72% 30.23 in 10.0 mi WSW 17.3 mph 24.2 mph N/A   Overcast
6:53 AM 28.0 °F 18.6 °F 19.9 °F 72% 30.24 in 10.0 mi WSW 10.4 mph - N/A   Overcast
7:53 AM 28.0 °F 18.1 °F 19.9 °F 72% 30.24 in 10.0 mi WSW 11.5 mph 25.3 mph N/A   Overcast
8:53 AM 28.9 °F 16.9 °F 19.0 °F 67% 30.25 in 10.0 mi West 17.3 mph 26.5 mph N/A   Overcast
9:53 AM 28.9 °F 16.9 °F 19.9 °F 69% 30.27 in 10.0 mi West 17.3 mph 26.5 mph N/A   Overcast
10:53 AM 28.9 °F 16.1 °F 18.0 °F 64% 30.28 in 10.0 mi West 19.6 mph 29.9 mph N/A   Overcast
11:53 AM 28.9 °F 15.4 °F 17.1 °F 61% 30.25 in 10.0 mi WSW 21.9 mph 29.9 mph N/A   Mostly Cloudy
12:41 PM 30.2 °F 17.8 °F 17.6 °F 60% 30.17 in 10.0 mi WSW 19.6 mph 32.2 mph N/A   Scattered Clouds
12:53 PM 30.0 °F 17.5 °F 17.1 °F 59% 30.22 in 10.0 mi WSW 19.6 mph 27.6 mph N/A   Partly Cloudy
1:53 PM 30.0 °F 17.5 °F 17.1 °F 59% 30.20 in 10.0 mi WSW 19.6 mph 32.2 mph N/A   Clear
2:53 PM 32.0 °F 19.2 °F 17.1 °F 54% 30.21 in 10.0 mi WSW 23.0 mph 35.7 mph N/A   Clear
3:53 PM 32.0 °F 21.6 °F 17.1 °F 54% 30.21 in 10.0 mi West 15.0 mph 28.8 mph N/A   Clear
4:53 PM 32.0 °F 21.2 °F 17.1 °F 54% 30.21 in 10.0 mi WSW 16.1 mph 24.2 mph N/A   Clear
5:53 PM 30.0 °F 19.5 °F 17.1 °F 59% 30.23 in 10.0 mi West 13.8 mph 23.0 mph N/A   Clear
6:53 PM 30.0 °F 19.5 °F 18.0 °F 61% 30.24 in 10.0 mi West 13.8 mph 27.6 mph N/A   Clear
7:53 PM 30.0 °F 20.5 °F 18.0 °F 61% 30.25 in 10.0 mi West 11.5 mph 21.9 mph N/A   Clear
8:53 PM 28.9 °F 17.3 °F 18.0 °F 64% 30.27 in 10.0 mi West 16.1 mph 25.3 mph N/A   Clear
9:53 PM 28.0 °F 18.1 °F 16.0 °F 61% 30.27 in 10.0 mi WSW 11.5 mph 25.3 mph N/A   Clear
10:53 PM 27.0 °F 18.0 °F 16.0 °F 63% 30.30 in 10.0 mi WSW 9.2 mph 19.6 mph N/A   Clear
11:53 PM 27.0 °F 17.3 °F 16.0 °F 63% 30.30 in 10.0 mi WSW 10.4 mph 19.6 mph N/A   Clear